Tracking 30701 objects as of 14-Jun-2025
HD Live streaming from Space Station
objects crossing your sky now

STARLINK-5029

Track STARLINK-5029 now!
10-day predictions
STARLINK-5029 is classified as:


NORAD ID: 53887
Int'l Code: 2022-119B
Perigee: 545.9 km
Apogee: 547.5 km
Inclination: 53.2 °
Period: 95.4 minutes
Semi major axis: 6917 km
RCS: Unknown
Launch date: September 24, 2022
Source: United States (US)
Launch site: AIR FORCE EASTERN TEST RANGE (AFETR)
Your satellite tracking list
Your tracking list is empty




NASA's NSSDC Master Catalog

Two Line Element Set (TLE):
1 53887U 22119B   25165.15675330 -.00014397  00000-0 -88689-3 0  9993
2 53887  53.2204  89.7245 0001207  66.6251 293.4868 15.08898368151148
Source of the keplerian elements: AFSPC